Weather History for Traverse City, MI

Change the Weather History Date:

Sunday, July 7, 2013

  Actual Average Record
Temperature  
Mean Temperature 78 °F 69 °F  
Max Temperature 90 °F 80 °F 105 °F (1936)
Min Temperature 65 °F 57 °F 44 °F (1997)
Degree Days  
Heating Degree Days 0 1  
Month to date heating degree days 5 8  
Since 1 June heating degree days 107 120  
Since 1 July heating degree days 5 8  
Cooling Degree Days 13 5  
Month to date cooling degree days 49 35  
Year to date cooling degree days 178 136  
Since 1 June cooling degree days 136 116  
Growing Degree Days 27 (Base 50)    
Moisture  
Dew Point 63 °F    
Average Humidity 64    
Maximum Humidity 87    
Minimum Humidity 40    
Precipitation  
Precipitation T in 0.09 in 2.17 in (1955)
Month to date precipitation T 0.65  
Year to date precipitation 13.76 15.36  
Sea Level Pressure  
Sea Level Pressure 29.93 in    
Wind  
Wind Speed 4 mph (SW)    
Max Wind Speed 13 mph    
Max Gust Speed 20 mph    
Visibility 10 miles    
Events      
T = Trace of Precipitation, MM = Missing Value Source: NWS Daily Summary

Daily Weather History Graph

Daily Weather History Graph

Search for Another Location

Airport:

Trip Planner

Search our weather history database for the weather conditions in past years. The results will help you decide how hot, cold, wet, or windy it might be!

Date:

Astronomy

Jul. 07, 2013 Rise Set
Actual Time 6:04 AM EDT 9:29 PM EDT
Civil Twilight 5:28 AM EDT 10:06 PM EDT
Nautical Twilight 4:40 AM EDT 10:53 PM EDT
Astronomical Twilight 3:39 AM EDT 11:54 PM EDT
Moon 5:42 AM EDT (7/7) 8:49 PM EDT (7/7)
Length of Visible Light 16h 38m
Length of Day
15h 25m
Waning Crescent, 0% of the Moon is Illuminated
Jul 7
Waning Crescent
Jul 8
New
Jul 15
First Quarter
Jul 22
Full
Jul 29
Last Quarter

Hourly Weather History & Observations

Time (EDT) Temp. Heat Index Dew Point Humidity Pressure Visibility Wind Dir Wind Speed Gust Speed Precip Events Conditions
12:53 AM 71.1 °F - 62.1 °F 73% 29.98 in 10.0 mi Calm Calm - N/A   Clear
1:53 AM 69.1 °F - 61.0 °F 75% 29.97 in 10.0 mi Calm Calm - N/A   Clear
2:53 AM 66.9 °F - 61.0 °F 81% 29.95 in 10.0 mi Calm Calm - N/A   Clear
3:53 AM 66.0 °F - 61.0 °F 84% 29.95 in 10.0 mi Calm Calm - N/A   Clear
4:53 AM 66.9 °F - 62.1 °F 84% 29.94 in 9.0 mi South 3.5 mph - N/A   Clear
5:53 AM 66.9 °F - 63.0 °F 87% 29.94 in 8.0 mi Calm Calm - N/A   Clear
6:53 AM 68.0 °F - 63.0 °F 84% 29.96 in 6.0 mi Calm Calm - N/A   Haze
7:53 AM 71.1 °F - 64.0 °F 78% 29.96 in 7.0 mi SW 4.6 mph - N/A   Scattered Clouds
8:53 AM 75.9 °F - 64.9 °F 69% 29.96 in 9.0 mi WSW 3.5 mph - N/A   Scattered Clouds
9:53 AM 78.1 °F - 64.9 °F 64% 29.95 in 9.0 mi Variable 4.6 mph - N/A   Scattered Clouds
10:53 AM 79.0 °F - 66.0 °F 64% 29.96 in 10.0 mi Variable 3.5 mph - N/A   Scattered Clouds
11:53 AM 82.9 °F 84.0 °F 63.0 °F 51% 29.94 in 10.0 mi West 6.9 mph - N/A   Scattered Clouds
12:53 PM 87.1 °F 87.5 °F 62.1 °F 43% 29.92 in 10.0 mi Variable 3.5 mph - N/A   Scattered Clouds
1:53 PM 88.0 °F 87.6 °F 60.1 °F 39% 29.91 in 10.0 mi SW 5.8 mph - N/A   Mostly Cloudy
2:53 PM 86.0 °F 85.7 °F 60.1 °F 41% 29.90 in 10.0 mi Calm Calm - N/A   Overcast
3:53 PM 87.1 °F 87.8 °F 63.0 °F 44% 29.90 in 10.0 mi SW 9.2 mph - N/A   Overcast
4:53 PM 88.0 °F 89.3 °F 64.0 °F 45% 29.90 in 10.0 mi West 11.5 mph 18.4 mph N/A   Overcast
5:53 PM 86.0 °F 87.3 °F 64.0 °F 48% 29.90 in 10.0 mi SW 8.1 mph - N/A   Mostly Cloudy
6:53 PM 84.9 °F 85.4 °F 62.1 °F 46% 29.90 in 10.0 mi WSW 5.8 mph - N/A   Mostly Cloudy
7:53 PM 84.0 °F 84.9 °F 63.0 °F 49% 29.91 in 10.0 mi WSW 5.8 mph - N/A   Mostly Cloudy
8:53 PM 81.0 °F 82.5 °F 64.0 °F 56% 29.91 in 10.0 mi SSW 4.6 mph - N/A   Mostly Cloudy
9:53 PM 79.0 °F - 64.9 °F 62% 29.92 in 10.0 mi Calm Calm - N/A   Mostly Cloudy
10:53 PM 77.0 °F - 64.9 °F 66% 29.93 in 10.0 mi Variable 3.5 mph - N/A   Scattered Clouds
11:53 PM 77.0 °F - 64.9 °F 66% 29.96 in 10.0 mi WSW 4.6 mph - N/A   Mostly Cloudy